Time,TemperatureF,DewpointF,PressureIn,WindDirection,WindDirectionDegrees,WindSpeedMPH,WindSpeedGustMPH,Humidity,HourlyPrecipIn,Conditions,Clouds,dailyrainin,SoftwareType,DateUTC
2013-02-20 00:01:00,10.0,3.0,30.37,NNW,346,3.0,7.0,71,0.00,,,0.00,,2013-02-20 06:01:00,
2013-02-20 00:11:00,10.0,3.0,30.37,North,360,5.0,9.0,73,0.00,,,0.00,,2013-02-20 06:11:00,
2013-02-20 00:21:00,10.0,3.0,30.37,North,360,5.0,9.0,73,0.00,,,0.00,,2013-02-20 06:21:00,
2013-02-20 00:31:00,10.0,3.0,30.37,NNE,21,3.0,9.0,73,0.00,,,0.00,,2013-02-20 06:31:00,
2013-02-20 00:42:00,10.0,3.0,30.37,NNE,21,3.0,9.0,73,0.00,,,0.00,,2013-02-20 06:42:00,
2013-02-20 00:52:00,9.0,2.0,30.38,North,355,2.0,4.0,74,0.00,,,0.00,,2013-02-20 06:52:00,
2013-02-20 01:01:00,9.0,3.0,30.38,NNE,30,1.0,5.0,75,0.00,,,0.00,,2013-02-20 07:01:00,
2013-02-20 01:11:00,9.0,3.0,30.38,NNE,30,1.0,5.0,75,0.00,,,0.00,,2013-02-20 07:11:00,
2013-02-20 01:21:00,8.0,2.0,30.37,North,11,2.0,7.0,76,0.00,,,0.00,,2013-02-20 07:21:00,
2013-02-20 01:31:00,8.0,2.0,30.38,North,5,2.0,5.0,76,0.00,,,0.00,,2013-02-20 07:31:00,
2013-02-20 01:41:00,8.0,2.0,30.38,North,5,2.0,5.0,76,0.00,,,0.00,,2013-02-20 07:41:00,
2013-02-20 01:52:00,8.0,2.0,30.38,NNE,17,1.0,6.0,76,0.00,,,0.00,,2013-02-20 07:52:00,
2013-02-20 02:05:00,8.0,2.0,30.39,NNE,17,0.0,4.0,76,0.00,,,0.00,,2013-02-20 08:05:00,
2013-02-20 02:11:00,8.0,2.0,30.39,NNE,17,0.0,4.0,76,0.00,,,0.00,,2013-02-20 08:11:00,
2013-02-20 02:21:00,8.0,2.0,30.39,NNE,17,0.0,4.0,76,0.00,,,0.00,,2013-02-20 08:21:00,
2013-02-20 02:31:00,8.0,2.0,30.39,NNE,17,2.0,4.0,77,0.00,,,0.00,,2013-02-20 08:31:00,
2013-02-20 02:41:00,8.0,2.0,30.39,NNE,17,2.0,4.0,77,0.00,,,0.00,,2013-02-20 08:41:00,
2013-02-20 02:52:00,7.0,1.0,30.39,North,5,4.0,8.0,76,0.00,,,0.00,,2013-02-20 08:52:00,
2013-02-20 03:01:00,7.0,1.0,30.38,NNE,24,2.0,5.0,77,0.00,,,0.00,,2013-02-20 09:01:00,
2013-02-20 03:11:00,7.0,1.0,30.38,NNE,24,2.0,5.0,77,0.00,,,0.00,,2013-02-20 09:11:00,
2013-02-20 03:21:00,7.0,1.0,30.38,NNE,15,2.0,5.0,77,0.00,,,0.00,,2013-02-20 09:21:00,
2013-02-20 03:31:00,7.0,1.0,30.36,NE,42,7.0,10.0,77,0.00,,,0.00,,2013-02-20 09:31:00,
2013-02-20 03:42:00,7.0,1.0,30.36,NE,42,7.0,10.0,77,0.00,,,0.00,,2013-02-20 09:42:00,
2013-02-20 03:52:00,6.0,1.0,30.37,NE,39,5.0,8.0,78,0.00,,,0.00,,2013-02-20 09:52:00,
2013-02-20 04:01:00,6.0,1.0,30.36,NE,36,3.0,11.0,78,0.00,,,0.00,,2013-02-20 10:01:00,
2013-02-20 04:12:00,6.0,1.0,30.36,NE,36,3.0,11.0,78,0.00,,,0.00,,2013-02-20 10:12:00,
2013-02-20 04:22:00,6.0,1.0,30.36,NE,42,4.0,8.0,79,0.00,,,0.00,,2013-02-20 10:22:00,
2013-02-20 04:31:00,6.0,1.0,30.35,NE,42,6.0,8.0,79,0.00,,,0.00,,2013-02-20 10:31:00,
2013-02-20 04:41:00,6.0,1.0,30.35,NE,42,6.0,8.0,79,0.00,,,0.00,,2013-02-20 10:41:00,
2013-02-20 04:52:00,6.0,1.0,30.35,NE,44,5.0,10.0,79,0.00,,,0.00,,2013-02-20 10:52:00,
2013-02-20 05:02:00,6.0,1.0,30.35,NNE,32,4.0,11.0,79,0.00,,,0.00,,2013-02-20 11:02:00,
2013-02-20 05:11:00,6.0,1.0,30.34,NE,36,5.0,9.0,80,0.00,,,0.00,,2013-02-20 11:11:00,
2013-02-20 05:21:00,6.0,1.0,30.34,NE,36,5.0,9.0,80,0.00,,,0.00,,2013-02-20 11:21:00,
2013-02-20 05:32:00,6.0,1.0,30.34,East,80,3.0,6.0,80,0.00,,,0.00,,2013-02-20 11:32:00,
2013-02-20 05:41:00,6.0,1.0,30.34,East,80,3.0,6.0,80,0.00,,,0.00,,2013-02-20 11:41:00,
2013-02-20 05:52:00,6.0,1.0,30.34,ENE,59,1.0,6.0,80,0.00,,,0.00,,2013-02-20 11:52:00,
2013-02-20 06:01:00,6.0,1.0,30.34,East,82,2.0,4.0,78,0.00,,,0.00,,2013-02-20 12:01:00,
2013-02-20 06:12:00,6.0,1.0,30.34,East,82,2.0,4.0,78,0.00,,,0.00,,2013-02-20 12:12:00,
2013-02-20 06:21:00,6.0,1.0,30.34,East,82,2.0,5.0,78,0.00,,,0.00,,2013-02-20 12:21:00,
2013-02-20 06:32:00,5.0,-1.0,30.34,East,85,1.0,7.0,77,0.00,,,0.00,,2013-02-20 12:32:00,
2013-02-20 06:42:00,5.0,-1.0,30.34,East,85,1.0,7.0,77,0.00,,,0.00,,2013-02-20 12:42:00,
2013-02-20 06:53:00,5.0,-1.0,30.34,East,86,2.0,7.0,77,0.00,,,0.00,,2013-02-20 12:53:00,
2013-02-20 07:01:00,5.0,-1.0,30.35,East,82,3.0,6.0,77,0.00,,,0.00,,2013-02-20 13:01:00,
2013-02-20 07:11:00,5.0,-1.0,30.35,East,82,3.0,6.0,77,0.00,,,0.00,,2013-02-20 13:11:00,
2013-02-20 07:22:00,5.0,-1.0,30.35,ENE,73,1.0,6.0,77,0.00,,,0.00,,2013-02-20 13:22:00,
2013-02-20 07:31:00,5.0,-1.0,30.35,East,83,3.0,7.0,77,0.00,,,0.00,,2013-02-20 13:31:00,
2013-02-20 07:42:00,5.0,-1.0,30.35,East,83,3.0,7.0,77,0.00,,,0.00,,2013-02-20 13:42:00,
2013-02-20 07:52:00,5.0,0.0,30.35,East,86,2.0,6.0,78,0.00,,,0.00,,2013-02-20 13:52:00,
2013-02-20 08:01:00,6.0,1.0,30.35,East,79,4.0,7.0,78,0.00,,,0.00,,2013-02-20 14:01:00,
2013-02-20 08:11:00,6.0,1.0,30.35,East,79,4.0,7.0,78,0.00,,,0.00,,2013-02-20 14:11:00,
2013-02-20 08:21:00,6.0,0.0,30.36,East,94,6.0,9.0,76,0.00,,,0.00,,2013-02-20 14:21:00,
2013-02-20 08:32:00,6.0,0.0,30.37,ENE,78,3.0,10.0,75,0.00,,,0.00,,2013-02-20 14:32:00,
2013-02-20 08:42:00,7.0,1.0,30.36,East,90,6.0,8.0,76,0.00,,,0.00,,2013-02-20 14:42:00,
2013-02-20 08:52:00,7.0,1.0,30.36,East,90,6.0,8.0,76,0.00,,,0.00,,2013-02-20 14:52:00,
2013-02-20 09:01:00,7.0,1.0,30.36,East,92,6.0,8.0,75,0.00,,,0.00,,2013-02-20 15:01:00,
2013-02-20 09:11:00,9.0,2.0,30.35,East,84,6.0,11.0,74,0.00,,,0.00,,2013-02-20 15:11:00,
2013-02-20 09:22:00,9.0,2.0,30.35,East,84,6.0,11.0,74,0.00,,,0.00,,2013-02-20 15:22:00,
2013-02-20 09:32:00,9.0,2.0,30.36,ESE,102,7.0,8.0,73,0.00,,,0.00,,2013-02-20 15:32:00,
2013-02-20 09:42:00,10.0,3.0,30.36,ESE,118,6.0,9.0,71,0.00,,,0.00,,2013-02-20 15:42:00,
2013-02-20 09:52:00,10.0,3.0,30.36,ESE,118,6.0,9.0,71,0.00,,,0.00,,2013-02-20 15:52:00,
2013-02-20 10:01:00,12.0,4.0,30.36,SE,126,4.0,9.0,69,0.00,,,0.00,,2013-02-20 16:01:00,
2013-02-20 10:11:00,12.0,3.0,30.37,ESE,123,7.0,11.0,67,0.00,,,0.00,,2013-02-20 16:11:00,
2013-02-20 10:21:00,12.0,3.0,30.37,ESE,123,7.0,11.0,67,0.00,,,0.00,,2013-02-20 16:21:00,
2013-02-20 10:32:00,13.0,3.0,30.37,East,94,7.0,11.0,65,0.00,,,0.00,,2013-02-20 16:32:00,
2013-02-20 10:41:00,14.0,4.0,30.37,ESE,111,8.0,12.0,65,0.00,,,0.00,,2013-02-20 16:41:00,
2013-02-20 10:52:00,14.0,4.0,30.37,ESE,111,8.0,12.0,65,0.00,,,0.00,,2013-02-20 16:52:00,
2013-02-20 11:01:00,15.0,4.0,30.37,ESE,112,8.0,14.0,62,0.00,,,0.00,,2013-02-20 17:01:00,
2013-02-20 11:11:00,15.0,5.0,30.37,East,95,8.0,11.0,63,0.00,,,0.00,,2013-02-20 17:11:00,
2013-02-20 11:21:00,15.0,5.0,30.37,East,95,8.0,11.0,63,0.00,,,0.00,,2013-02-20 17:21:00,
2013-02-20 11:32:00,16.0,5.0,30.37,ESE,120,8.0,12.0,62,0.00,,,0.00,,2013-02-20 17:32:00,
2013-02-20 11:42:00,16.0,5.0,30.37,ESE,120,8.0,12.0,62,0.00,,,0.00,,2013-02-20 17:42:00,
2013-02-20 11:52:00,16.0,5.0,30.37,East,86,8.0,11.0,62,0.00,,,0.00,,2013-02-20 17:52:00,
2013-02-20 12:02:00,17.0,6.0,30.36,ESE,111,7.0,11.0,61,0.00,,,0.00,,2013-02-20 18:02:00,
2013-02-20 12:11:00,17.0,6.0,30.36,ESE,111,7.0,11.0,61,0.00,,,0.00,,2013-02-20 18:11:00,
2013-02-20 12:21:00,18.0,6.0,30.37,SE,132,5.0,8.0,60,0.00,,,0.00,,2013-02-20 18:21:00,
2013-02-20 12:32:00,18.0,5.0,30.36,SSE,148,5.0,8.0,57,0.00,,,0.00,,2013-02-20 18:32:00,
2013-02-20 12:42:00,18.0,5.0,30.36,SSE,148,5.0,8.0,57,0.00,,,0.00,,2013-02-20 18:42:00,
2013-02-20 12:52:00,19.0,6.0,30.35,SE,131,8.0,9.0,57,0.00,,,0.00,,2013-02-20 18:52:00,
2013-02-20 13:01:00,19.0,6.0,30.34,ESE,119,6.0,9.0,56,0.00,,,0.00,,2013-02-20 19:01:00,
2013-02-20 13:11:00,19.0,6.0,30.34,ESE,119,6.0,9.0,56,0.00,,,0.00,,2013-02-20 19:11:00,
2013-02-20 13:21:00,19.0,6.0,30.32,SE,129,7.0,11.0,55,0.00,,,0.00,,2013-02-20 19:21:00,
2013-02-20 13:31:00,20.0,7.0,30.31,ESE,113,6.0,8.0,56,0.00,,,0.00,,2013-02-20 19:31:00,
2013-02-20 13:41:00,20.0,7.0,30.31,ESE,113,6.0,8.0,56,0.00,,,0.00,,2013-02-20 19:41:00,
2013-02-20 13:52:00,21.0,7.0,30.30,ESE,111,8.0,12.0,54,0.00,,,0.00,,2013-02-20 19:52:00,
2013-02-20 14:01:00,21.0,7.0,30.29,East,90,10.0,12.0,54,0.00,,,0.00,,2013-02-20 20:01:00,
2013-02-20 14:11:00,21.0,7.0,30.27,ESE,103,10.0,14.0,53,0.00,,,0.00,,2013-02-20 20:11:00,
2013-02-20 14:21:00,21.0,7.0,30.27,ESE,103,10.0,14.0,53,0.00,,,0.00,,2013-02-20 20:21:00,
2013-02-20 14:31:00,21.0,7.0,30.26,East,81,5.0,11.0,53,0.00,,,0.00,,2013-02-20 20:31:00,
2013-02-20 14:41:00,22.0,8.0,30.27,East,96,8.0,11.0,53,0.00,,,0.00,,2013-02-20 20:41:00,
2013-02-20 14:51:00,22.0,8.0,30.27,East,96,8.0,11.0,53,0.00,,,0.00,,2013-02-20 20:51:00,
2013-02-20 15:01:00,22.0,7.0,30.26,East,98,8.0,11.0,52,0.00,,,0.00,,2013-02-20 21:01:00,
2013-02-20 15:11:00,23.0,8.0,30.26,East,88,9.0,13.0,53,0.00,,,0.00,,2013-02-20 21:11:00,
2013-02-20 15:21:00,23.0,8.0,30.26,East,88,9.0,13.0,53,0.00,,,0.00,,2013-02-20 21:21:00,
2013-02-20 15:31:00,23.0,8.0,30.26,ESE,109,7.0,11.0,52,0.00,,,0.00,,2013-02-20 21:31:00,
2013-02-20 15:41:00,23.0,8.0,30.26,ESE,109,7.0,11.0,52,0.00,,,0.00,,2013-02-20 21:41:00,
2013-02-20 15:51:00,23.0,8.0,30.25,ESE,109,7.0,9.0,52,0.00,,,0.00,,2013-02-20 21:51:00,
2013-02-20 16:01:00,24.0,9.0,30.24,ESE,113,7.0,11.0,52,0.00,,,0.00,,2013-02-20 22:01:00,
2013-02-20 16:11:00,24.0,9.0,30.24,ESE,105,9.0,12.0,51,0.00,,,0.00,,2013-02-20 22:11:00,
2013-02-20 16:21:00,24.0,9.0,30.24,ESE,105,9.0,12.0,51,0.00,,,0.00,,2013-02-20 22:21:00,
2013-02-20 16:31:00,24.0,9.0,30.24,ESE,111,8.0,12.0,51,0.00,,,0.00,,2013-02-20 22:31:00,
2013-02-20 16:42:00,24.0,9.0,30.24,ESE,111,8.0,12.0,51,0.00,,,0.00,,2013-02-20 22:42:00,
2013-02-20 16:51:00,24.0,9.0,30.24,ESE,117,10.0,15.0,51,0.00,,,0.00,,2013-02-20 22:51:00,
2013-02-20 17:01:00,24.0,9.0,30.23,ESE,114,8.0,14.0,51,0.00,,,0.00,,2013-02-20 23:01:00,
2013-02-20 17:12:00,24.0,9.0,30.23,ESE,109,8.0,13.0,51,0.00,,,0.00,,2013-02-20 23:12:00,
2013-02-20 17:22:00,24.0,9.0,30.23,ESE,109,8.0,13.0,51,0.00,,,0.00,,2013-02-20 23:22:00,
2013-02-20 17:31:00,24.0,9.0,30.22,ESE,102,8.0,13.0,52,0.00,,,0.00,,2013-02-20 23:31:00,
2013-02-20 17:42:00,24.0,9.0,30.22,ESE,102,8.0,13.0,52,0.00,,,0.00,,2013-02-20 23:42:00,
2013-02-20 17:52:00,24.0,9.0,30.22,ESE,106,10.0,13.0,51,0.00,,,0.00,,2013-02-20 23:52:00,
2013-02-20 18:03:00,25.0,9.0,30.21,ESE,107,9.0,12.0,51,0.00,,,0.00,,2013-02-21 00:03:00,
2013-02-20 18:11:00,25.0,9.0,30.21,ESE,107,9.0,12.0,51,0.00,,,0.00,,2013-02-21 00:11:00,
2013-02-20 18:21:00,25.0,9.0,30.21,ESE,107,6.0,12.0,51,0.00,,,0.00,,2013-02-21 00:21:00,
2013-02-20 18:32:00,25.0,9.0,30.21,ESE,117,10.0,12.0,51,0.00,,,0.00,,2013-02-21 00:32:00,
2013-02-20 18:42:00,25.0,9.0,30.21,ESE,117,10.0,12.0,51,0.00,,,0.00,,2013-02-21 00:42:00,
2013-02-20 18:52:00,24.0,9.0,30.21,ESE,109,10.0,14.0,52,0.00,,,0.00,,2013-02-21 00:52:00,
2013-02-20 19:01:00,24.0,9.0,30.21,East,98,7.0,12.0,52,0.00,,,0.00,,2013-02-21 01:01:00,
2013-02-20 19:11:00,24.0,9.0,30.21,East,98,7.0,12.0,52,0.00,,,0.00,,2013-02-21 01:11:00,
2013-02-20 19:21:00,24.0,9.0,30.21,East,100,8.0,11.0,52,0.00,,,0.00,,2013-02-21 01:21:00,
2013-02-20 19:32:00,24.0,9.0,30.20,East,88,6.0,8.0,53,0.00,,,0.00,,2013-02-21 01:32:00,
2013-02-20 19:41:00,24.0,9.0,30.20,East,88,6.0,8.0,53,0.00,,,0.00,,2013-02-21 01:41:00,
2013-02-20 19:52:00,24.0,9.0,30.20,East,95,7.0,9.0,53,0.00,,,0.00,,2013-02-21 01:52:00,
2013-02-20 20:01:00,25.0,10.0,30.19,ESE,105,6.0,12.0,52,0.00,,,0.00,,2013-02-21 02:01:00,
2013-02-20 20:11:00,25.0,10.0,30.19,ESE,105,6.0,12.0,52,0.00,,,0.00,,2013-02-21 02:11:00,
2013-02-20 20:21:00,25.0,9.0,30.19,East,97,7.0,9.0,51,0.00,,,0.00,,2013-02-21 02:21:00,
2013-02-20 20:32:00,25.0,9.0,30.20,ESE,110,9.0,13.0,51,0.00,,,0.00,,2013-02-21 02:32:00,
2013-02-20 20:42:00,25.0,9.0,30.20,ESE,110,9.0,13.0,51,0.00,,,0.00,,2013-02-21 02:42:00,
2013-02-20 20:52:00,25.0,9.0,30.20,ESE,110,9.0,13.0,51,0.00,,,0.00,,2013-02-21 02:52:00,
2013-02-20 21:01:00,25.0,9.0,30.20,East,101,13.0,18.0,51,0.00,,,0.00,,2013-02-21 03:01:00,
2013-02-20 21:12:00,25.0,9.0,30.20,East,101,13.0,18.0,51,0.00,,,0.00,,2013-02-21 03:12:00,
2013-02-20 21:21:00,25.0,9.0,30.20,East,94,9.0,16.0,51,0.00,,,0.00,,2013-02-21 03:21:00,
2013-02-20 21:32:00,25.0,10.0,30.19,ESE,105,12.0,15.0,52,0.00,,,0.00,,2013-02-21 03:32:00,
2013-02-20 21:41:00,25.0,10.0,30.19,ESE,105,12.0,15.0,52,0.00,,,0.00,,2013-02-21 03:41:00,
2013-02-20 21:52:00,24.0,9.0,30.20,East,87,13.0,16.0,52,0.00,,,0.00,,2013-02-21 03:52:00,
2013-02-20 22:01:00,24.0,9.0,30.21,East,90,8.0,14.0,53,0.00,,,0.00,,2013-02-21 04:01:00,
2013-02-20 22:11:00,24.0,9.0,30.21,East,90,8.0,14.0,53,0.00,,,0.00,,2013-02-21 04:11:00,
2013-02-20 22:21:00,24.0,10.0,30.22,East,101,11.0,18.0,54,0.00,,,0.00,,2013-02-21 04:21:00,
2013-02-20 22:32:00,24.0,10.0,30.22,ESE,115,11.0,14.0,54,0.00,,,0.00,,2013-02-21 04:32:00,
2013-02-20 22:42:00,24.0,10.0,30.22,ESE,115,11.0,14.0,54,0.00,,,0.00,,2013-02-21 04:42:00,
2013-02-20 22:52:00,24.0,10.0,30.23,ESE,106,12.0,13.0,54,0.00,,,0.00,,2013-02-21 04:52:00,
2013-02-20 23:02:00,24.0,10.0,30.23,ESE,113,12.0,14.0,55,0.00,,,0.00,,2013-02-21 05:02:00,
2013-02-20 23:12:00,24.0,10.0,30.23,ESE,113,12.0,14.0,55,0.00,,,0.00,,2013-02-21 05:12:00,
2013-02-20 23:22:00,23.0,9.0,30.23,ESE,116,12.0,14.0,55,0.00,,,0.00,,2013-02-21 05:22:00,
2013-02-20 23:33:00,23.0,10.0,30.22,ESE,107,8.0,15.0,57,0.00,,,0.00,,2013-02-21 05:33:00,
2013-02-20 23:43:00,23.0,10.0,30.22,ESE,107,8.0,15.0,57,0.00,,,0.00,,2013-02-21 05:43:00,
2013-02-20 23:59:00,23.0,10.0,30.21,East,96,10.0,14.0,57,0.00,,,0.00,,2013-02-21 05:59:00,